SCP
0 0 -0 -0 -0 0 -0 -0 0 -0 -0 -0 -0 -0 -0 -0 -0 0 0 0 0 0 -0 -0 0 0 -0 -0 0 0 -0 0 0 -0 -0 0 0 0 0 0 -0 0 0 0
0 -0 0 0 0 -0 -0 -0 -0 -0 -0 -0 0 -0 -0 -0 -0 -0 -0 -0 0 0 -0 -0 -0 -0 -0 0 0 -0 0 -0 0 0 0 -0 0 -0 0 -0 -0 0 0 0
0 -0 0 0 -0 -0 -0 0 0 -0 0 -0 -0 -0 -0 -0 -0 -0 -0 -0 -0 -0 -0 -0 -0 -0 0 0 0 -0 -0 0 0 0 -0 0 0 0 0 0 0 0 0 0
-0 0 0 -0 -0 -0 -0 0 0 0 -0 0 -0 1 -0 -0 0 -0 -0 -0 -0 -0 -0 -0 -0 -0 -0 -0 -0 -0 -0 -0 0 0 0 0 0 0 0 0 0 0 0 0
-0 0 0 -0 -0 0 -0 0 0 0 0 0 -0 0 -0 -0 0 0 -0 -0 -0 -0 -0 -0 -0 -0 -0 -0 -0 -0 -0 -0 -0 -0 0 -0 -0 -0 0 0 0 0 0 0
-0 0 -0 -0 -0 0 -0 -0 -0 -0 -0 -0 0 0 -0 -0 0 0 -0 -0 -0 -0 -0 -0 -0 -0 -0 -0 -0 -0 -0 -1 -0 -0 -0 -0 0 0 -0 0 0 0 0 0
-0 -0 -0 0 -0 -0 0 -0 -0 -0 -0 0 -0 0 -0 -0 -0 0 -0 -0 -0 -0 -0 -0 -0 -0 -0 -0 -0 -0 -1 -1 -1 -0 -0 -0 -0 0 0 0 -0 -0 0 -0
-0 -0 -0 -0 -0 -0 -0 -0 -0 0 0 0 0 0 0 -0 0 -0 -0 -0 -0 -0 -0 -0 -0 -0 -1 -1 -0 -0 -0 -1 -0 -0 -0 -0 -0 -0 -0 -0 0 0 -0 0
-0 -0 0 0 -0 -0 -0 -0 -0 -0 -0 0 0 -0 -0 -0 -0 -0 -0 -0 -0 0 -0 0 -0 -0 -0 -0 -0 -0 -0 -1 -1 -0 0 0 0 0 -0 -0 -0 0 0 0
-0 -0 -0 0 -0 -0 -0 0 -0 -0 -0 0 0 -0 0 0 -0 -0 -0 -0 0 -0 0 0 -0 0 0 -0 -0 -0 0 0 -0 -0 -0 0 0 0 -0 -0 0 -0 -0 0
-0 -0 0 -0 0 -0 0 -0 -0 -0 0 -0 -0 0 0 0 0 -0 -0 0 -0 -0 0 0 0 0 0 0 0 0 -0 -0 -0 -0 0 0 0 -0 0 0 0 0 0 0
-0 -0 -0 0 0 0 -0 -0 -0 -0 0 -0 0 0 0 0 -0 -0 -0 -0 -0 0 0 0 0 0 0 0 0 0 -0 -0 -0 0 0 0 0 0 0 0 0 0 0 1
0 -0 -0 -0 -0 -0 0 0 -0 -0 -0 0 0 0 -0 -0 -0 0 -0 -0 0 0 0 0 0 0 0 0 0 0 0 0 0 0 0 0 0 0 0 -0 -0 0 1 1
0 -0 -0 0 0 -0 0 0 0 -0 -0 0 0 0 0 0 0 0 0 0 0 0 0 0 0 0 0 0 0 0 0 0 0 0 0 0 0 0 -0 -0 0 0 1 1
0 -0 -0 0 0 0 0 0 0 0 0 -0 0 -0 0 0 0 0 0 0 0 0 0 1 1 0 0 0 0 0 0 0 1 1 1 0 1 0 0 0 2 2 1 1
-0 -0 0 0 0 0 0 0 0 0 0 0 0 0 0 0 1 1 0 0 0 1 1 1 1 0 0 1 1 1 1 1 1 1 1 1 1 1 1 1 1 1 2 3
0 0 0 0 0 0 -0 0 0 -0 0 0 0 0 0 0 0 1 0 0 1 1 1 1 1 1 0 1 1 1 1 1 2 2 2 1 1 1 1 1 1 1 1 1
0 0 0 0 0 -0 -0 0 0 0 0 0 0 0 0 0 1 0 0 1 1 1 1 1 1 0 0 0 1 1 1 1 2 2 2 1 1 1 1 1 1 1 1 1
0 0 0 0 -0 -0 -0 0 0 0 0 0 0 0 0 0 0 1 1 1 1 1 0 0 0 0 0 0 0 0 0 0 0 0 0 0 0 0 1 1 1 1 1 1
0 0 0 0 0 -0 0 0 0 0 0 0 0 0 0 0 0 1 0 0 0 0 0 0 0 0 0 0 0 0 0 0 0 0 0 0 0 0 0 0 0 1 1 1
0 0 0 0 0 -0 0 0 0 0 0 0 0 0 0 0 0 0 0 0 0 0 0 0 0 0 0 0 0 0 0 0 0 0 0 0 0 0 0 0 0 0 0 1
0 0 0 0 0 0 0 0 0 0 0 0 0 0 0 0 0 0 0 0 0 0 0 0 0 0 0 0 0 0 0 0 0 0 0 0 0 0 0 0 0 0 0 0
0 0 0 0 0 0 0 0 0 0 0 0 0 0 0 0 0 0 0 0 0 0 0 0 0 0 0 0 0 0 0 0 0 0 0 0 0 0 0 0 0 0 0 0
0 0 0 0 0 0 0 0 0 0 0 0 0 0 0 0 0 0 0 0 0 0 0 0 0 0 0 0 0 0 0 0 0 0 0 0 0 0 0 0 0 0 0 0
0 0 0 0 0 0 0 0 0 0 0 0 0 0 0 0 0 0 0 0 0 0 0 0 0 0 0 0 0 0 0 0 0 0 0 0 0 0 0 0 0 0 0 0
0 0 0 0 0 0 0 0 0 0 0 0 0 0 0 0 0 0 0 0 0 0 0 0 0 0 0 0 0 0 0 0 0 0 0 0 0 0 0 0 0 0 0 0
Wind_Speed_500mb
24 21 20 21 18 12 11 14 11 17 11 11 14 26 24 27 27 31 33 34 39 40 42 45 50 48 55 62 56 46 46 35 38 31 26 25 21 19 18 18 16 17 14 13
17 30 11 9 15 19 16 15 21 21 17 6 5 27 28 28 28 33 35 38 40 42 44 45 49 52 59 61 55 52 45 36 33 26 25 24 21 18 18 18 20 22 20 14
28 27 16 15 22 15 24 13 18 17 10 23 29 16 21 30 29 31 32 36 42 45 48 48 51 56 60 66 57 52 43 39 37 35 27 24 23 25 18 22 22 25 24 18
22 17 9 19 17 15 20 12 12 16 23 16 28 11 30 30 26 26 37 40 46 49 48 50 54 57 66 63 57 55 48 43 41 39 35 34 29 25 22 20 20 20 24 22
26 17 11 21 18 14 20 10 19 20 26 13 25 17 28 37 36 36 40 46 45 50 51 54 55 56 60 60 60 57 54 51 48 45 45 39 38 30 26 25 20 26 23 25
25 16 16 19 14 10 15 27 29 24 25 21 10 26 20 35 31 36 41 43 44 48 49 48 49 51 55 58 59 58 56 58 54 52 48 53 43 37 33 26 26 22 22 23
35 29 8 12 26 19 21 37 14 13 11 8 10 24 8 24 39 35 39 43 43 40 44 46 50 54 57 61 62 58 59 62 61 54 55 54 57 50 42 37 30 29 27 29
22 23 30 16 14 24 22 27 8 10 7 8 2 22 4 31 20 44 35 34 33 33 38 42 47 54 59 60 61 60 58 63 54 58 61 61 55 46 42 39 36 35 31 31
6 13 12 4 12 18 11 16 23 24 19 17 9 23 32 30 33 33 31 27 23 22 24 24 34 43 53 57 58 58 59 57 64 54 61 60 58 55 45 42 38 36 36 35
12 18 9 20 15 23 26 19 16 12 7 12 17 30 25 13 35 32 36 36 26 21 19 12 6 23 31 43 48 49 50 55 51 51 48 51 50 51 54 53 57 50 41 35
30 25 11 23 6 22 14 20 16 16 15 19 10 8 9 41 32 36 36 29 38 23 20 15 15 16 16 23 33 41 44 46 48 50 50 51 45 41 41 41 40 40 40 44
19 23 21 14 18 8 19 31 28 17 2 29 9 5 48 69 31 38 45 34 33 26 24 25 27 28 25 23 24 29 34 37 38 40 42 42 42 42 40 40 38 38 39 41
10 19 21 23 28 23 17 1 23 25 27 12 10 4 21 13 27 31 41 35 31 29 29 31 31 32 31 28 27 25 23 19 20 25 32 36 40 49 40 39 40 37 38 39
10 30 34 20 21 21 3 8 11 28 20 13 6 32 32 17 21 15 36 34 32 29 29 29 29 30 28 27 25 22 15 10 8 13 19 23 25 27 29 30 33 35 35 39
18 34 28 9 8 14 22 20 17 22 27 29 21 21 8 18 27 23 27 31 30 29 30 28 27 23 24 23 19 14 8 5 5 6 7 11 18 21 25 26 27 29 32 35
26 30 16 16 23 20 22 24 26 27 28 29 28 26 23 33 21 16 18 31 32 28 26 24 23 21 18 19 17 13 8 4 1 2 1 13 11 16 18 23 23 27 30 33
29 21 18 22 24 17 21 27 29 29 31 31 27 21 11 16 10 16 23 32 37 31 28 27 24 21 18 17 17 14 12 9 9 7 5 4 3 6 10 20 23 29 34 36
25 20 22 21 22 26 31 15 18 22 27 26 21 18 11 1 15 15 25 34 35 34 29 26 24 23 19 17 17 18 12 12 10 8 6 8 11 11 11 18 17 20 23 29
30 24 20 23 25 29 31 26 19 22 24 25 22 17 21 17 27 24 29 36 37 35 30 27 22 19 17 14 15 15 13 11 8 9 11 14 15 15 14 15 17 23 29 27
36 25 23 26 31 33 27 15 12 13 23 25 15 17 29 36 23 21 37 39 38 32 28 24 20 17 16 16 13 12 10 9 11 17 20 23 24 25 25 24 25 22 26 30
23 28 36 29 32 35 20 14 4 19 2 15 17 20 33 27 7 60 48 40 33 29 27 24 20 17 15 11 7 6 7 12 23 27 28 28 27 30 26 28 31 31 28 30
31 25 26 31 37 37 20 13 16 12 10 13 12 27 32 29 41 49 44 38 34 29 25 21 19 15 12 10 7 7 12 27 29 28 23 23 24 23 21 26 30 31 31 33
40 32 26 31 20 30 13 18 19 29 17 8 17 28 34 35 42 43 42 37 32 26 22 16 14 11 8 8 11 13 22 25 25 22 21 20 20 20 25 27 27 26 26 27
39 48 35 33 36 34 19 19 23 19 14 17 19 28 39 39 45 42 40 35 30 24 20 15 11 7 2 5 10 13 16 19 17 19 21 21 22 26 23 24 21 22 23 26
28 32 34 33 29 49 17 27 27 25 27 29 22 25 41 42 44 42 39 34 28 25 19 15 11 7 1 8 11 10 12 15 17 19 20 22 22 26 26 23 23 21 19 25
29 32 19 18 33 35 39 34 30 39 28 31 34 38 43 42 45 41 37 32 29 25 20 14 10 5 5 9 9 10 11 12 12 14 16 20 21 23 22 24 25 30 33 42
Wind_Direction_500mb
189 288 272 24 32 312 316 321 111 78 110 232 173 137 160 171 161 158 166 175 186 190 191 192 195 195 194 192 200 206 206 193 198 204 216 218 223 231 233 237 248 243 255 242
234 244 41 330 303 290 284 279 91 131 143 194 220 138 161 179 178 169 171 179 181 178 172 178 186 191 193 193 199 205 197 195 209 210 211 217 224 228 237 243 243 249 238 231
269 307 358 287 280 301 294 21 6 330 207 215 155 119 167 177 184 174 179 181 181 181 174 179 184 187 191 195 202 204 216 208 208 201 216 221 221 228 226 238 247 251 247 254
258 270 300 274 293 292 308 11 290 274 273 208 229 139 205 186 188 188 188 189 186 189 188 187 188 191 191 199 202 209 215 216 216 214 212 221 225 228 230 233 239 244 247 237
198 217 275 298 313 327 306 319 277 284 257 201 196 119 160 170 180 190 200 193 193 192 195 194 196 199 203 206 210 214 218 220 216 221 217 218 225 228 227 230 230 250 242 258
285 292 282 286 297 256 297 262 238 220 243 229 146 118 289 173 171 185 195 195 198 195 201 203 203 206 210 214 217 220 221 224 222 218 229 218 221 226 229 231 238 236 250 257
212 225 174 247 251 208 227 244 260 252 202 158 263 48 228 110 142 180 184 194 194 198 195 207 210 210 214 217 219 221 220 222 225 223 220 230 230 227 231 235 241 248 254 250
219 157 196 165 282 338 322 315 286 184 333 322 57 130 311 122 109 149 160 173 177 190 198 201 212 217 219 218 217 217 217 218 220 222 224 230 236 235 241 247 245 247 254 260
170 151 154 151 306 292 292 261 356 308 186 104 347 152 139 146 146 133 118 120 136 174 180 194 210 216 223 219 218 216 213 216 227 225 228 229 233 236 234 240 246 257 257 240
351 260 153 139 236 232 276 349 266 263 195 279 166 228 148 139 150 138 120 119 123 132 120 123 190 204 216 219 215 212 213 214 220 221 229 231 233 243 252 254 250 245 239 245
282 275 165 220 241 356 311 237 232 310 330 313 271 59 157 178 171 129 128 133 127 138 122 123 127 139 169 190 201 208 210 215 220 224 225 229 231 237 245 247 254 256 248 235
238 322 290 314 67 306 269 281 302 272 23 290 330 214 131 280 126 144 119 127 123 125 124 126 124 123 128 144 165 186 202 211 220 227 232 232 233 229 236 248 244 244 244 243
283 246 266 281 161 170 244 60 285 293 311 324 343 59 308 56 117 138 126 131 135 135 129 129 129 127 126 130 136 147 158 182 205 228 230 232 232 236 240 239 242 241 240 241
291 278 286 295 12 345 61 215 288 299 287 300 270 154 207 153 133 133 131 146 148 143 134 130 134 135 135 134 140 149 155 181 236 210 225 226 235 234 244 248 248 240 244 240
243 266 285 288 291 282 298 299 290 281 300 312 340 351 90 143 150 158 150 156 153 148 141 141 137 135 134 133 133 143 158 185 202 203 231 245 237 237 245 248 241 243 246 247
236 259 285 268 281 251 259 268 272 272 273 280 285 287 297 106 114 153 197 173 169 146 142 136 134 132 133 127 125 118 115 93 66 89 234 228 231 257 258 255 251 256 248 247
243 249 249 262 283 289 254 257 256 255 261 268 261 274 349 113 152 183 196 193 162 155 150 139 129 120 118 116 111 95 87 81 82 79 74 48 13 327 290 255 255 251 248 246
254 239 272 273 279 263 269 318 336 307 296 287 261 267 153 221 119 166 164 152 150 147 142 133 123 115 114 109 97 94 77 75 74 54 27 343 331 321 302 308 287 273 270 263
261 266 259 256 253 261 271 254 245 235 266 245 256 249 131 146 133 126 136 145 146 146 139 130 126 121 110 95 88 93 83 70 50 14 335 324 322 318 318 316 295 294 289 276
244 264 252 253 257 267 289 336 339 303 256 237 198 234 146 162 184 142 149 144 142 137 134 132 127 113 101 96 89 80 64 32 356 332 319 310 302 300 299 296 291 285 284 280
208 239 256 242 249 260 249 287 91 254 348 84 175 181 165 200 247 148 148 140 138 135 132 129 129 121 107 98 86 55 7 343 326 319 314 310 305 303 307 295 288 287 283 274
211 216 236 247 255 248 252 239 233 293 150 172 185 165 175 130 135 145 146 144 139 135 130 127 120 112 99 81 57 359 327 321 320 317 318 314 315 317 310 303 298 293 288 288
244 241 225 242 251 228 228 293 263 249 320 174 179 172 166 162 155 152 150 148 145 142 138 141 135 122 87 43 357 344 318 321 323 327 325 326 325 331 326 326 325 323 319 303
260 227 252 244 247 270 183 245 269 266 207 264 196 188 174 176 164 161 155 153 150 147 141 140 143 145 161 355 347 336 320 325 331 325 326 326 324 316 327 328 326 314 311 306
262 260 251 254 253 269 228 262 240 244 235 226 238 215 183 180 169 167 160 156 153 149 142 142 140 146 65 351 345 340 338 333 334 333 334 333 325 320 326 324 321 322 320 302
267 259 258 236 246 257 256 241 248 241 230 232 224 226 188 187 172 170 160 158 155 149 143 136 120 102 16 2 353 346 349 342 344 357 348 329 326 326 324 323 322 322 328 332
Wind_Speed_850mb
24 21 20 21 18 12 11 14 11 17 11 11 14 26 24 27 27 31 33 34 39 40 42 45 50 48 55 62 56 46 46 35 38 31 26 25 21 19 18 18 16 17 14 13
17 30 11 9 15 19 16 15 21 21 17 6 5 27 28 28 28 33 35 38 40 42 44 45 49 52 59 61 55 52 45 36 33 26 25 24 21 18 18 18 20 22 20 14
28 27 16 15 22 15 24 13 18 17 10 23 29 16 21 30 29 31 32 36 42 45 48 48 51 56 60 66 57 52 43 39 37 35 27 24 23 25 18 22 22 25 24 18
22 17 9 19 17 15 20 12 12 16 23 16 28 11 30 30 26 26 37 40 46 49 48 50 54 57 66 63 57 55 48 43 41 39 35 34 29 25 22 20 20 20 24 22
26 17 11 21 18 14 20 10 19 20 26 13 25 17 28 37 36 36 40 46 45 50 51 54 55 56 60 60 60 57 54 51 48 45 45 39 38 30 26 25 20 26 23 25
25 16 16 19 14 10 15 27 29 24 25 21 10 26 20 35 31 36 41 43 44 48 49 48 49 51 55 58 59 58 56 58 54 52 48 53 43 37 33 26 26 22 22 23
35 29 8 12 26 19 21 37 14 13 11 8 10 24 8 24 39 35 39 43 43 40 44 46 50 54 57 61 62 58 59 62 61 54 55 54 57 50 42 37 30 29 27 29
22 23 30 16 14 24 22 27 8 10 7 8 2 22 4 31 20 44 35 34 33 33 38 42 47 54 59 60 61 60 58 63 54 58 61 61 55 46 42 39 36 35 31 31
6 13 12 4 12 18 11 16 23 24 19 17 9 23 32 30 33 33 31 27 23 22 24 24 34 43 53 57 58 58 59 57 64 54 61 60 58 55 45 42 38 36 36 35
12 18 9 20 15 23 26 19 16 12 7 12 17 30 25 13 35 32 36 36 26 21 19 12 6 23 31 43 48 49 50 55 51 51 48 51 50 51 54 53 57 50 41 35
30 25 11 23 6 22 14 20 16 16 15 19 10 8 9 41 32 36 36 29 38 23 20 15 15 16 16 23 33 41 44 46 48 50 50 51 45 41 41 41 40 40 40 44
19 23 21 14 18 8 19 31 28 17 2 29 9 5 48 69 31 38 45 34 33 26 24 25 27 28 25 23 24 29 34 37 38 40 42 42 42 42 40 40 38 38 39 41
10 19 21 23 28 23 17 1 23 25 27 12 10 4 21 13 27 31 41 35 31 29 29 31 31 32 31 28 27 25 23 19 20 25 32 36 40 49 40 39 40 37 38 39
10 30 34 20 21 21 3 8 11 28 20 13 6 32 32 17 21 15 36 34 32 29 29 29 29 30 28 27 25 22 15 10 8 13 19 23 25 27 29 30 33 35 35 39
18 34 28 9 8 14 22 20 17 22 27 29 21 21 8 18 27 23 27 31 30 29 30 28 27 23 24 23 19 14 8 5 5 6 7 11 18 21 25 26 27 29 32 35
26 30 16 16 23 20 22 24 26 27 28 29 28 26 23 33 21 16 18 31 32 28 26 24 23 21 18 19 17 13 8 4 1 2 1 13 11 16 18 23 23 27 30 33
29 21 18 22 24 17 21 27 29 29 31 31 27 21 11 16 10 16 23 32 37 31 28 27 24 21 18 17 17 14 12 9 9 7 5 4 3 6 10 20 23 29 34 36
25 20 22 21 22 26 31 15 18 22 27 26 21 18 11 1 15 15 25 34 35 34 29 26 24 23 19 17 17 18 12 12 10 8 6 8 11 11 11 18 17 20 23 29
30 24 20 23 25 29 31 26 19 22 24 25 22 17 21 17 27 24 29 36 37 35 30 27 22 19 17 14 15 15 13 11 8 9 11 14 15 15 14 15 17 23 29 27
36 25 23 26 31 33 27 15 12 13 23 25 15 17 29 36 23 21 37 39 38 32 28 24 20 17 16 16 13 12 10 9 11 17 20 23 24 25 25 24 25 22 26 30
23 28 36 29 32 35 20 14 4 19 2 15 17 20 33 27 7 60 48 40 33 29 27 24 20 17 15 11 7 6 7 12 23 27 28 28 27 30 26 28 31 31 28 30
31 25 26 31 37 37 20 13 16 12 10 13 12 27 32 29 41 49 44 38 34 29 25 21 19 15 12 10 7 7 12 27 29 28 23 23 24 23 21 26 30 31 31 33
40 32 26 31 20 30 13 18 19 29 17 8 17 28 34 35 42 43 42 37 32 26 22 16 14 11 8 8 11 13 22 25 25 22 21 20 20 20 25 27 27 26 26 27
39 48 35 33 36 34 19 19 23 19 14 17 19 28 39 39 45 42 40 35 30 24 20 15 11 7 2 5 10 13 16 19 17 19 21 21 22 26 23 24 21 22 23 26
28 32 34 33 29 49 17 27 27 25 27 29 22 25 41 42 44 42 39 34 28 25 19 15 11 7 1 8 11 10 12 15 17 19 20 22 22 26 26 23 23 21 19 25
29 32 19 18 33 35 39 34 30 39 28 31 34 38 43 42 45 41 37 32 29 25 20 14 10 5 5 9 9 10 11 12 12 14 16 20 21 23 22 24 25 30 33 42
Wind_Direction_850mb
189 288 272 24 32 312 316 321 111 78 110 232 173 137 160 171 161 158 166 175 186 190 191 192 195 195 194 192 200 206 206 193 198 204 216 218 223 231 233 237 248 243 255 242
234 244 41 330 303 290 284 279 91 131 143 194 220 138 161 179 178 169 171 179 181 178 172 178 186 191 193 193 199 205 197 195 209 210 211 217 224 228 237 243 243 249 238 231
269 307 358 287 280 301 294 21 6 330 207 215 155 119 167 177 184 174 179 181 181 181 174 179 184 187 191 195 202 204 216 208 208 201 216 221 221 228 226 238 247 251 247 254
258 270 300 274 293 292 308 11 290 274 273 208 229 139 205 186 188 188 188 189 186 189 188 187 188 191 191 199 202 209 215 216 216 214 212 221 225 228 230 233 239 244 247 237
198 217 275 298 313 327 306 319 277 284 257 201 196 119 160 170 180 190 200 193 193 192 195 194 196 199 203 206 210 214 218 220 216 221 217 218 225 228 227 230 230 250 242 258
285 292 282 286 297 256 297 262 238 220 243 229 146 118 289 173 171 185 195 195 198 195 201 203 203 206 210 214 217 220 221 224 222 218 229 218 221 226 229 231 238 236 250 257
212 225 174 247 251 208 227 244 260 252 202 158 263 48 228 110 142 180 184 194 194 198 195 207 210 210 214 217 219 221 220 222 225 223 220 230 230 227 231 235 241 248 254 250
219 157 196 165 282 338 322 315 286 184 333 322 57 130 311 122 109 149 160 173 177 190 198 201 212 217 219 218 217 217 217 218 220 222 224 230 236 235 241 247 245 247 254 260
170 151 154 151 306 292 292 261 356 308 186 104 347 152 139 146 146 133 118 120 136 174 180 194 210 216 223 219 218 216 213 216 227 225 228 229 233 236 234 240 246 257 257 240
351 260 153 139 236 232 276 349 266 263 195 279 166 228 148 139 150 138 120 119 123 132 120 123 190 204 216 219 215 212 213 214 220 221 229 231 233 243 252 254 250 245 239 245
282 275 165 220 241 356 311 237 232 310 330 313 271 59 157 178 171 129 128 133 127 138 122 123 127 139 169 190 201 208 210 215 220 224 225 229 231 237 245 247 254 256 248 235
238 322 290 314 67 306 269 281 302 272 23 290 330 214 131 280 126 144 119 127 123 125 124 126 124 123 128 144 165 186 202 211 220 227 232 232 233 229 236 248 244 244 244 243
283 246 266 281 161 170 244 60 285 293 311 324 343 59 308 56 117 138 126 131 135 135 129 129 129 127 126 130 136 147 158 182 205 228 230 232 232 236 240 239 242 241 240 241
291 278 286 295 12 345 61 215 288 299 287 300 270 154 207 153 133 133 131 146 148 143 134 130 134 135 135 134 140 149 155 181 236 210 225 226 235 234 244 248 248 240 244 240
243 266 285 288 291 282 298 299 290 281 300 312 340 351 90 143 150 158 150 156 153 148 141 141 137 135 134 133 133 143 158 185 202 203 231 245 237 237 245 248 241 243 246 247
236 259 285 268 281 251 259 268 272 272 273 280 285 287 297 106 114 153 197 173 169 146 142 136 134 132 133 127 125 118 115 93 66 89 234 228 231 257 258 255 251 256 248 247
243 249 249 262 283 289 254 257 256 255 261 268 261 274 349 113 152 183 196 193 162 155 150 139 129 120 118 116 111 95 87 81 82 79 74 48 13 327 290 255 255 251 248 246
254 239 272 273 279 263 269 318 336 307 296 287 261 267 153 221 119 166 164 152 150 147 142 133 123 115 114 109 97 94 77 75 74 54 27 343 331 321 302 308 287 273 270 263
261 266 259 256 253 261 271 254 245 235 266 245 256 249 131 146 133 126 136 145 146 146 139 130 126 121 110 95 88 93 83 70 50 14 335 324 322 318 318 316 295 294 289 276
244 264 252 253 257 267 289 336 339 303 256 237 198 234 146 162 184 142 149 144 142 137 134 132 127 113 101 96 89 80 64 32 356 332 319 310 302 300 299 296 291 285 284 280
208 239 256 242 249 260 249 287 91 254 348 84 175 181 165 200 247 148 148 140 138 135 132 129 129 121 107 98 86 55 7 343 326 319 314 310 305 303 307 295 288 287 283 274
211 216 236 247 255 248 252 239 233 293 150 172 185 165 175 130 135 145 146 144 139 135 130 127 120 112 99 81 57 359 327 321 320 317 318 314 315 317 310 303 298 293 288 288
244 241 225 242 251 228 228 293 263 249 320 174 179 172 166 162 155 152 150 148 145 142 138 141 135 122 87 43 357 344 318 321 323 327 325 326 325 331 326 326 325 323 319 303
260 227 252 244 247 270 183 245 269 266 207 264 196 188 174 176 164 161 155 153 150 147 141 140 143 145 161 355 347 336 320 325 331 325 326 326 324 316 327 328 326 314 311 306
262 260 251 254 253 269 228 262 240 244 235 226 238 215 183 180 169 167 160 156 153 149 142 142 140 146 65 351 345 340 338 333 334 333 334 333 325 320 326 324 321 322 320 302
267 259 258 236 246 257 256 241 248 241 230 232 224 226 188 187 172 170 160 158 155 149 143 136 120 102 16 2 353 346 349 342 344 357 348 329 326 326 324 323 322 322 328 332